Weather History for Cape Girardeau, MO

Change the Weather History Date:

Friday, October 11, 2013

  Actual Average Record
Temperature  
Mean Temperature 67 °F 59 °F  
Max Temperature 80 °F 72 °F 92 °F (1963)
Min Temperature 53 °F 46 °F 29 °F (1964)
Degree Days  
Heating Degree Days 0 7  
Month to date heating degree days 28 65  
Since 1 July heating degree days 39 114  
Cooling Degree Days 2 1  
Month to date cooling degree days 43 18  
Year to date cooling degree days 1436 1440  
Growing Degree Days 16 (Base 50)    
Moisture  
Dew Point 56 °F    
Average Humidity 73    
Maximum Humidity 100    
Minimum Humidity 45    
Precipitation  
Precipitation 0.00 in 0.11 in 1.95 in (1969)
Month to date precipitation 1.80 1.27  
Year to date precipitation 30.47 35.60  
Sea Level Pressure  
Sea Level Pressure 30.01 in    
Wind  
Wind Speed 5 mph (SSE)    
Max Wind Speed 14 mph    
Max Gust Speed 20 mph    
Visibility 5 miles    
Events Fog    
T = Trace of Precipitation, MM = Missing Value Source: NWS Daily Summary

Daily Weather History Graph

Daily Weather History Graph

Search for Another Location

Airport:

Trip Planner

Search our weather history database for the weather conditions in past years. The results will help you decide how hot, cold, wet, or windy it might be!

Date:

Astronomy

Oct. 11, 2013 Rise Set
Actual Time 7:02 AM CDT 6:26 PM CDT
Civil Twilight 6:36 AM CDT 6:52 PM CDT
Nautical Twilight 6:06 AM CDT 7:22 PM CDT
Astronomical Twilight 5:36 AM CDT 7:52 PM CDT
Moon 1:40 PM CDT (10/11) No Moon Set
Length of Visible Light 12h 16m
Length of Day
11h 23m
Waxing Crescent, 47% of the Moon is Illuminated
Oct 11
Waxing Crescent
Oct 11
First Quarter
Oct 18
Full
Oct 26
Last Quarter
Nov 3
New

Hourly Weather History & Observations

Time (CDT) Temp. Dew Point Humidity Pressure Visibility Wind Dir Wind Speed Gust Speed Precip Events Conditions
12:45 AM 55.4 °F 53.6 °F 94% 30.02 in 0.8 mi Calm Calm - N/A   Clear
12:49 AM 55.4 °F 53.6 °F 94% 30.02 in 0.2 mi Calm Calm - N/A Fog Fog
12:53 AM 55.0 °F 54.0 °F 96% 30.02 in 0.2 mi Calm Calm - N/A Fog Fog
1:05 AM 57.2 °F 55.4 °F 94% 30.02 in 1.0 mi Calm Calm - N/A   Mist
1:07 AM 57.2 °F 55.4 °F 94% 30.02 in 3.0 mi Calm Calm - N/A   Scattered Clouds
1:49 AM 55.4 °F 53.6 °F 94% 30.02 in 1.5 mi Calm Calm - N/A   Clear
1:50 AM 55.0 °F 54.0 °F 96% 30.01 in 1.0 mi Calm Calm - N/A   Clear
1:55 AM 55.4 °F 53.6 °F 94% 30.02 in 0.2 mi Calm Calm - N/A Fog Fog
2:17 AM 55.4 °F 55.4 °F 100% 30.02 in 0.2 mi Calm Calm - N/A Fog Fog
2:27 AM 53.6 °F 53.6 °F 100% 30.02 in 0.2 mi Calm Calm - N/A Fog Fog
2:35 AM 53.6 °F 53.6 °F 100% 30.02 in 0.2 mi Calm Calm - N/A Fog Fog
2:53 AM 55.9 °F 55.0 °F 97% 30.01 in 0.2 mi Calm Calm - N/A Fog Fog
3:08 AM 53.6 °F 53.6 °F 100% 30.02 in 0.5 mi Calm Calm - N/A Fog Fog
3:18 AM 53.6 °F 53.6 °F 100% 30.02 in 0.2 mi Calm Calm - N/A Fog Fog
3:34 AM 53.6 °F 53.6 °F 100% 30.02 in 0.8 mi Calm Calm - N/A   Overcast
3:40 AM 55.4 °F 55.4 °F 100% 30.02 in 2.5 mi Calm Calm - N/A   Overcast
3:53 AM 55.9 °F 55.0 °F 97% 30.01 in 9.0 mi Calm Calm - N/A   Mostly Cloudy
4:53 AM 55.0 °F 54.0 °F 96% 30.03 in 6.0 mi Calm Calm - N/A   Partly Cloudy
5:06 AM 55.4 °F 55.4 °F 100% 30.04 in 1.8 mi ESE 3.5 mph - N/A   Partly Cloudy
5:16 AM 53.6 °F 53.6 °F 100% 30.04 in 0.8 mi Calm Calm - N/A   Partly Cloudy
5:25 AM 53.6 °F 53.6 °F 100% 30.04 in 1.8 mi East 4.6 mph - N/A   Clear
5:36 AM 55.4 °F 53.6 °F 94% 30.04 in 2.0 mi East 3.5 mph - N/A   Clear
5:50 AM 55.4 °F 55.4 °F 100% 30.04 in 4.0 mi Calm Calm - N/A   Clear
5:53 AM 55.9 °F 55.0 °F 97% 30.04 in 4.0 mi Calm Calm - N/A   Clear
6:53 AM 57.0 °F 55.9 °F 96% 30.05 in 5.0 mi Calm Calm - N/A   Scattered Clouds
7:53 AM 60.1 °F 57.9 °F 93% 30.05 in 4.0 mi Calm Calm - N/A   Partly Cloudy
8:53 AM 64.9 °F 62.1 °F 90% 30.05 in 7.0 mi SE 6.9 mph - N/A   Clear
9:53 AM 69.1 °F 62.1 °F 78% 30.06 in 10.0 mi South 5.8 mph - N/A   Clear
10:53 AM 73.9 °F 62.1 °F 66% 30.05 in 10.0 mi South 9.2 mph - N/A   Clear
11:53 AM 75.9 °F 60.1 °F 58% 30.04 in 10.0 mi SSW 9.2 mph - N/A   Scattered Clouds
12:53 PM 75.0 °F 59.0 °F 57% 30.03 in 10.0 mi WSW 9.2 mph - N/A   Mostly Cloudy
1:53 PM 77.0 °F 57.9 °F 52% 30.00 in 10.0 mi South 4.6 mph - N/A   Partly Cloudy
2:53 PM 75.9 °F 57.9 °F 54% 29.99 in 10.0 mi South 6.9 mph - N/A   Mostly Cloudy
3:53 PM 79.0 °F 55.9 °F 45% 29.97 in 10.0 mi South 10.4 mph - N/A   Clear
4:53 PM 79.0 °F 57.0 °F 47% 29.96 in 10.0 mi SSE 5.8 mph - N/A   Partly Cloudy
5:53 PM 75.0 °F 57.9 °F 55% 29.95 in 10.0 mi SSE 6.9 mph - N/A   Clear
6:44 PM 73.4 °F 57.2 °F 57% 29.96 in 2.0 mi SE 6.9 mph - N/A   Haze
6:53 PM 70.0 °F 57.9 °F 65% 29.96 in 3.0 mi SE 6.9 mph - N/A   Haze
7:53 PM 66.0 °F 57.9 °F 75% 29.96 in 8.0 mi SSE 5.8 mph - N/A   Clear
8:53 PM 63.0 °F 57.9 °F 84% 29.97 in 10.0 mi SE 6.9 mph - N/A   Clear
9:53 PM 64.9 °F 57.9 °F 78% 29.98 in 10.0 mi SSE 5.8 mph - N/A   Clear
10:53 PM 64.0 °F 59.0 °F 84% 29.98 in 10.0 mi SSE 6.9 mph - N/A   Clear
11:53 PM 64.9 °F 59.0 °F 81% 29.99 in 10.0 mi SSE 8.1 mph - N/A   Mostly Cloudy